Home > Weather > Lynchburg > Past weeks

Flag for U.S.A. Weather for the Past 2 Weeks in Lynchburg, Virginia, U.S.A.

Now
25 °F

Passing clouds.


Feels Like: 18 °F
Forecast: 3 / 27 °F
Wind: 6 mph from Southeast

Location: Lynchburg Regional Airport

Current Time: Feb 14, 2016 at 4:33:23 PM

Latest Report: Feb 14, 2016 at 3:54 PM


Visibility: 10 mi

Pressure: 30.52 "Hg

Humidity: 28%

Dew point: -4 °F

Location of LynchburgLocation

Historic Weather in Lynchburg — Graph

°F

Lynchburg Temperature Yesterday

Maximum temperature yesterday: 30 °F (at 12:54 AM)
Minimum temperature yesterday: 12 °F (at 10:54 PM)
Average temperature yesterday: 21 °F

High & Low Weather Summary for the Past Weeks

 TemperatureHumidityPressure
High65 °F (Feb 1, 11:54 AM)100% (Feb 1, 5:54 PM)30.60 "Hg (Feb 1, 5:54 PM)
Low7 °F (Feb 14, 4:54 AM)25% (Feb 13, 1:54 PM)29.57 "Hg (Feb 9, 3:54 AM)
Average35 °F63%30.07 "Hg
* Reported Jan 30 2:54 PM — Feb 14 2:54 PM, Lynchburg, Weather by CustomWeather, © 2016

Note: Actual official high and low records may vary slightly from our data, if they occured in-between our weather recording intervals... More about our weather records

Advertising

Lynchburg Weather History for the Previous 24 Hours

 ConditionsComfort  
Time TempWeatherWind HumidityBarometerVisibility
2:54 PM
Sun, Feb 14
25 °FSunny.No wind26%30.52 "Hg10 mi
1:54 PM25 °FSunny.3 mph28%30.52 "Hg10 mi
12:54 PM22 °FSunny.6 mph31%30.57 "Hg10 mi
11:54 AM19 °FSunny.No wind36%30.60 "Hg10 mi
10:54 AM18 °FSunny.No wind35%30.57 "Hg10 mi
9:54 AM17 °FSunny.No wind37%30.57 "Hg10 mi
8:54 AM16 °FSunny.3 mph43%30.57 "Hg10 mi
7:54 AM13 °FSunny.No wind46%30.55 "Hg10 mi
6:54 AM11 °FClear.5 mph53%30.54 "Hg10 mi
5:54 AM9 °FClear.No wind70%30.53 "Hg10 mi
4:54 AM7 °FClear.No wind70%30.51 "Hg10 mi
3:54 AM10 °FClear.No wind53%30.50 "Hg10 mi
2:54 AM9 °FClear.No wind55%30.47 "Hg10 mi
1:54 AM11 °FClear.5 mph51%30.46 "Hg10 mi
12:54 AM9 °FClear.No wind58%30.47 "Hg10 mi
11:54 PM
Sat, Feb 13
13 °FClear.3 mph42%30.46 "Hg10 mi
10:54 PM12 °FClear.3 mph46%30.47 "Hg10 mi
9:54 PM15 °FClear.5 mph38%30.45 "Hg10 mi
8:54 PM17 °FClear.No wind32%30.44 "Hg10 mi
7:54 PM18 °FClear.8 mph31%30.43 "Hg10 mi
6:54 PM19 °FClear.5 mph29%30.41 "Hg10 mi
5:54 PM20 °FClear.9 mph28%30.37 "Hg10 mi
4:54 PM23 °FSunny.10 mph25%30.34 "Hg10 mi
Weather by CustomWeather, © 2016

See weather overviewHow to use our weather pages